SP5IZJ-2 Weather Reports


Display with metric or nautical units.
time (UTC)temp
F
wind
direction
speed
MPH
gust
MPH
rain 1hr
in
rain 24hr
in
rain mn
in
humidity
%
barometer
mb
20260503000724 46 90 0.0 0.0 0.00 0.00 0.00 62 1011.3
20260502234624 46 90 0.0 0.0 0.00 0.00 0.00 61 1011.0
20260502233925 47 90 0.0 0.0 0.00 0.00 0.00 60 1011.1
20260502232529 47 90 0.0 0.0 0.00 0.00 0.00 60 1011.3
20260502231825 47 90 0.0 0.0 0.00 0.00 0.00 60 1011.3
20260502230425 48 90 0.0 0.0 0.00 0.00 0.00 60 1011.2
20260502221529 49 90 0.0 0.0 0.00 0.00 0.00 54 1011.4
20260502220127 50 90 0.0 0.0 0.00 0.00 0.00 53 1011.5
20260502214030 51 90 0.0 0.0 0.00 0.00 0.00 53 1011.4
20260502213328 51 90 0.0 0.0 0.00 0.00 0.00 53 1011.4
20260502211228 52 90 0.0 0.0 0.00 0.00 0.00 51 1011.4
20260502205833 53 90 0.0 0.0 0.00 0.00 0.00 50 1011.6
20260502203731 53 90 0.0 0.0 0.00 0.00 0.00 48 1011.6
20260502202356 53 90 0.0 0.0 0.00 0.00 0.00 48 1011.7
20260502201015 54 90 0.0 0.0 0.00 0.00 0.00 48 1011.6
20260502191416 57 90 0.0 0.0 0.00 0.00 0.00 43 1011.9
20260502190716 58 90 0.0 0.0 0.00 0.00 0.00 42 1011.8
20260502185958 59 90 0.0 0.0 0.00 0.00 0.00 41 1011.7
20260502184617 59 90 0.0 0.0 0.00 0.00 0.00 40 1011.7
20260502183917 60 359 0.0 0.0 0.00 0.00 0.00 39 1011.7
20260502181033 65 90 0.0 0.0 0.00 0.00 0.00 33 1011.7
20260502180333 67 90 0.0 0.0 0.00 0.00 0.00 32 1011.5
20260502163944 85 45 0.0 4.0 0.00 0.00 0.00 22 1011.7
20260502163235 86 23 0.0 2.0 0.00 0.00 0.00 22 1011.7
20260502151539 87 23 4.0 9.0 0.00 0.00 0.00 22 1012.5
20260502102849 79 23 3.0 7.0 0.00 0.00 0.00 28 1016.0
20260502091146 77 0 6.0 13.0 0.00 0.00 0.00 30 1016.9
20260502071249 67 0 4.0 8.0 0.00 0.00 0.00 43 1017.3
20260502065152 63 0 4.0 6.0 0.00 0.00 0.00 51 1017.3
20260502063052 61 23 3.0 7.0 0.00 0.00 0.00 49 1017.5
20260502060253 62 0 1.0 4.0 0.00 0.00 0.00 50 1017.2
20260502055555 61 0 1.0 7.0 0.00 0.00 0.00 51 1017.3
20260502054209 61 0 1.0 4.0 0.00 0.00 0.00 52 1017.5
20260502053452 61 338 2.0 5.0 0.00 0.00 0.00 51 1017.5
20260502051352 61 180 0.0 0.0 0.00 0.00 0.00 56 1017.4
20260502045255 58 180 0.0 0.0 0.00 0.00 0.00 61 1017.4
20260502044553 56 180 0.0 0.0 0.00 0.00 0.00 65 1017.4
20260502043153 52 180 0.0 0.0 0.00 0.00 0.00 74 1017.3
20260502040354 39 180 0.0 0.0 0.00 0.00 0.00 82 1017.5
20260502035654 38 180 0.0 0.0 0.00 0.00 0.00 82 1017.5
20260502034954 38 180 0.0 0.0 0.00 0.00 0.00 81 1017.6
20260502034254 37 180 0.0 0.0 0.00 0.00 0.00 81 1017.4
20260502031502 36 180 0.0 0.0 0.00 0.00 0.00 79 1017.3
20260502030755 36 180 0.0 0.0 0.00 0.00 0.00 79 1017.4
20260502023256 36 180 0.0 0.0 0.00 0.00 0.00 79 1017.6
20260502022559 36 180 0.0 0.0 0.00 0.00 0.00 79 1017.6
20260502020457 212 359 0.0 0.0 0.00 0.00 0.00 100
20260502015757 36 180 0.0 0.0 0.00 0.00 0.00 78 1017.7
20260502015106 36 180 0.0 0.0 0.00 0.00 0.00 78 1017.6
20260502014357 36 180 0.0 0.0 0.00 0.00 0.00 77 1017.5
20260502013658 36 180 0.0 0.0 0.00 0.00 0.00 77 1017.5
20260502012258 37 180 0.0 0.0 0.00 0.00 0.00 76 1017.5
20260502011558 37 180 0.0 0.0 0.00 0.00 0.00 76 1017.7
20260502004103 37 180 0.0 0.0 0.00 0.00 0.00 75 1017.8
20260502002708 38 180 0.0 0.0 0.00 0.00 0.00 75 1017.9